Location: Clanezzo
(45.7500°N, 9.6000°E)
Time: 04:39:06
(UTC+00:00)

AO-73 - Pass Details

Date: 30 June 2022
Orbit: 579 x 657 km, 97.6° (Epoch: 09 August)

Event Time Altitude Azimuth Distance (km) Brightness Sun altitude
Rises 02:04:41 0° 33° (NNE) 2,957 ? -12.1°
Reaches altitude 10° 02:08:15 10° 64° (ENE) 2,055 ? -11.8°
Maximum altitude 02:10:06 12° 88° (E) 1,905 ? -11.6°
Drops below altitude 10° 02:11:58 10° 113° (ESE) 2,060 ? -11.4°
Sets 02:15:32 0° 143° (SE) 2,972 ? -11.0°
